Orbital Elements
Epoch 2021 July 5.0 TT = JDT 2459400.5
T 2019 Jan. 27.55458 TT Rudenko
q 2.4288608 (2000.0) P Q
n 0.11620064 Peri. 37.81538 +0.89401883 -0.43579534
a 4.1590777 Node 346.77040 +0.21111858 +0.61448241
e 0.4160098 Incl. 27.02443 +0.39516994 +0.65764260
P 8.48
From 797 observations 2001 July 27-2021 Mar. 19, mean residual 0".6.
Nongravitational parameters A1 = -0.39, A2 = +0.0009.
|